• In Hungary
  • List of Countries
  • For 7 days
  • Water Temperature
  • Satellite Maps
  • Weather Map
  • News
  • Weather Widgets
  • user-avatar
    Login

    Hourly Weather Shaki

    Today, 21 August, Tuesday

    Time Temperature Precipitation Wind Pressure Humidity
    00:00 +20°C° 0 mm 2 mps 737 mmHg 65%
    01:00 +20°C° 0 mm 2 mps 736 mmHg 65%
    02:00 +20°C° 0 mm 2 mps 736 mmHg 65%
    03:00 +21°C° 0 mm 1 mps 736 mmHg 67%
    04:00 +21°C° 0 mm 1 mps 736 mmHg 65%
    05:00 +21°C° 0 mm 1 mps 736 mmHg 64%
    06:00 +21°C° 0 mm 1 mps 736 mmHg 63%
    07:00 +23°C° 0 mm 2 mps 736 mmHg 57%
    08:00 +25°C° 0 mm 2 mps 736 mmHg 51%
    09:00 +26°C° 0 mm 2 mps 736 mmHg 45%
    10:00 +27°C° 0 mm 2 mps 736 mmHg 43%
    11:00 +28°C° 0 mm 2 mps 736 mmHg 40%
    12:00 +29°C° 0 mm 3 mps 735 mmHg 38%
    13:00 +30°C° 0 mm 3 mps 735 mmHg 37%
    14:00 +30°C° 0 mm 3 mps 735 mmHg 37%
    15:00 +31°C° 0 mm 3 mps 734 mmHg 36%
    16:00 +30°C° 0 mm 2 mps 734 mmHg 39%
    17:00 +30°C° 0 mm 2 mps 734 mmHg 42%
    18:00 +29°C° 0 mm 2 mps 734 mmHg 45%
    19:00 +28°C° 0 mm 2 mps 734 mmHg 47%
    20:00 +26°C° 0 mm 2 mps 735 mmHg 50%
    21:00 +25°C° 0 mm 3 mps 735 mmHg 52%
    22:00 +24°C° 0 mm 3 mps 735 mmHg 53%
    23:00 +24°C° 0 mm 3 mps 735 mmHg 54%

    Tomorrow, 22 August, Wednesday

    Time Temperature Precipitation Wind Pressure Humidity
    00:00 +23°C° 0 mm 2 mps 734 mmHg 55%
    01:00 +23°C° 0 mm 2 mps 734 mmHg 55%
    02:00 +23°C° 0 mm 2 mps 734 mmHg 55%
    03:00 +22°C° 0 mm 1 mps 734 mmHg 55%
    04:00 +23°C° 0 mm 1 mps 734 mmHg 54%
    05:00 +23°C° 0 mm 1 mps 734 mmHg 52%
    06:00 +23°C° 0 mm 1 mps 734 mmHg 51%
    07:00 +25°C° 0 mm 1 mps 734 mmHg 47%
    08:00 +27°C° 0 mm 2 mps 734 mmHg 43%
    09:00 +29°C° 0 mm 2 mps 734 mmHg 38%
    10:00 +30°C° 0 mm 2 mps 734 mmHg 36%
    11:00 +31°C° 0 mm 2 mps 734 mmHg 34%
    12:00 +32°C° 0 mm 2 mps 733 mmHg 32%
    13:00 +34°C° 0 mm 2 mps 733 mmHg 32%
    14:00 +34°C° 0 mm 2 mps 733 mmHg 31%
    15:00 +34°C° 0 mm 2 mps 732 mmHg 30%
    16:00 +34°C° 0 mm 2 mps 733 mmHg 33%
    17:00 +32°C° 0 mm 2 mps 733 mmHg 36%
    18:00 +31°C° 0 mm 1 mps 733 mmHg 39%
    19:00 +30°C° 0 mm 2 mps 733 mmHg 41%
    20:00 +28°C° 0 mm 2 mps 734 mmHg 44%
    21:00 +27°C° 0 mm 2 mps 734 mmHg 47%
    22:00 +26°C° 0 mm 2 mps 734 mmHg 49%
    23:00 +26°C° 0 mm 2 mps 735 mmHg 50%

    Day after tomorrow, 23 August, Thursday

    Time Temperature Precipitation Wind Pressure Humidity
    00:00 +25°C° 0 mm 2 mps 735 mmHg 52%
    01:00 +25°C° 0 mm 2 mps 735 mmHg 53%
    02:00 +24°C° 0 mm 1 mps 735 mmHg 55%
    03:00 +24°C° 0 mm 1 mps 735 mmHg 57%
    04:00 +24°C° 0 mm 1 mps 735 mmHg 57%
    05:00 +24°C° 0 mm 1 mps 735 mmHg 57%
    06:00 +25°C° 0 mm 1 mps 735 mmHg 56%
    07:00 +26°C° 0 mm 1 mps 735 mmHg 50%
    08:00 +28°C° 0 mm 1 mps 735 mmHg 44%
    09:00 +30°C° 0 mm 2 mps 735 mmHg 38%
    10:00 +31°C° 0 mm 2 mps 735 mmHg 36%
    11:00 +32°C° 0 mm 2 mps 735 mmHg 33%
    12:00 +34°C° 0 mm 2 mps 735 mmHg 31%
    13:00 +35°C° 0 mm 3 mps 735 mmHg 30%
    14:00 +35°C° 0 mm 3 mps 735 mmHg 30%
    15:00 +35°C° 0 mm 3 mps 734 mmHg 29%
    16:00 +34°C° 0 mm 3 mps 734 mmHg 31%
    17:00 +34°C° 0 mm 3 mps 735 mmHg 34%
    18:00 +33°C° 0 mm 3 mps 735 mmHg 36%
    19:00 +30°C° 0 mm 3 mps 735 mmHg 40%
    20:00 +29°C° 0 mm 4 mps 735 mmHg 43%
    21:00 +27°C° 0 mm 4 mps 736 mmHg 47%
    22:00 +27°C° 0 mm 4 mps 736 mmHg 49%
    23:00 +26°C° 0 mm 3 mps 736 mmHg 51%

    24 August, Friday

    Time Temperature Precipitation Wind Pressure Humidity
    00:00 +25°C° 0 mm 3 mps 736 mmHg 53%
    01:00 +25°C° 0 mm 3 mps 736 mmHg 54%
    02:00 +25°C° 0 mm 2 mps 736 mmHg 55%
    03:00 +24°C° 0 mm 2 mps 736 mmHg 56%
    04:00 +24°C° 0 mm 2 mps 736 mmHg 56%
    05:00 +24°C° 0 mm 2 mps 736 mmHg 56%
    06:00 +24°C° 0 mm 1 mps 736 mmHg 55%
    07:00 +26°C° 0 mm 2 mps 736 mmHg 50%
    08:00 +28°C° 0 mm 2 mps 736 mmHg 45%
    09:00 +30°C° 0 mm 2 mps 736 mmHg 40%
    10:00 +31°C° 0 mm 3 mps 736 mmHg 38%
    11:00 +31°C° 0 mm 3 mps 735 mmHg 37%
    12:00 +33°C° 0 mm 3 mps 735 mmHg 35%
    13:00 +34°C° 0 mm 3 mps 735 mmHg 34%
    14:00 +34°C° 0 mm 4 mps 734 mmHg 33%
    15:00 +35°C° 0 mm 4 mps 734 mmHg 32%
    16:00 +34°C° 0 mm 3 mps 734 mmHg 34%
    17:00 +33°C° 0 mm 3 mps 734 mmHg 36%
    18:00 +31°C° 0 mm 3 mps 734 mmHg 38%
    19:00 +29°C° 0 mm 3 mps 734 mmHg 42%
    20:00 +28°C° 0 mm 4 mps 735 mmHg 45%
    21:00 +26°C° 0 mm 4 mps 735 mmHg 48%
    22:00 +26°C° 0 mm 4 mps 735 mmHg 50%
    23:00 +25°C° 0 mm 3 mps 735 mmHg 52%

    25 August, Saturday

    Time Temperature Precipitation Wind Pressure Humidity
    00:00 +24°C° 0 mm 3 mps 735 mmHg 54%
    01:00 +24°C° 0 mm 3 mps 735 mmHg 55%
    02:00 +23°C° 0 mm 2 mps 734 mmHg 56%
    03:00 +23°C° 0 mm 2 mps 734 mmHg 57%
    04:00 +23°C° 0 mm 2 mps 734 mmHg 57%
    05:00 +23°C° 0 mm 1 mps 734 mmHg 56%
    06:00 +23°C° 0 mm 1 mps 734 mmHg 56%
    07:00 +25°C° 0 mm 2 mps 734 mmHg 50%
    08:00 +27°C° 0 mm 2 mps 734 mmHg 43%
    09:00 +29°C° 0 mm 2 mps 734 mmHg 37%
    10:00 +30°C° 0 mm 3 mps 734 mmHg 35%
    11:00 +31°C° 0 mm 3 mps 734 mmHg 33%
    12:00 +33°C° 0 mm 3 mps 734 mmHg 31%
    13:00 +34°C° 0 mm 3 mps 733 mmHg 31%
    14:00 +34°C° 0 mm 4 mps 733 mmHg 31%
    15:00 +35°C° 0 mm 4 mps 733 mmHg 30%
    16:00 +34°C° 0 mm 4 mps 733 mmHg 32%
    17:00 +33°C° 0 mm 4 mps 733 mmHg 35%
    18:00 +32°C° 0 mm 4 mps 734 mmHg 37%
    19:00 +29°C° 0 mm 4 mps 734 mmHg 40%
    20:00 +27°C° 0 mm 4 mps 734 mmHg 42%
    21:00 +26°C° 0 mm 4 mps 734 mmHg 45%
    22:00 +25°C° 0 mm 4 mps 734 mmHg 46%
    23:00 +25°C° 0 mm 3 mps 734 mmHg 47%

    26 August, Sunday

    Time Temperature Precipitation Wind Pressure Humidity
    00:00 +24°C° 0 mm 3 mps 734 mmHg 48%
    01:00 +24°C° 0 mm 3 mps 734 mmHg 48%
    02:00 +23°C° 0 mm 2 mps 734 mmHg 47%
    03:00 +23°C° 0 mm 2 mps 734 mmHg 47%
    04:00 +23°C° 0 mm 2 mps 734 mmHg 46%
    05:00 +23°C° 0 mm 1 mps 734 mmHg 45%
    06:00 +23°C° 0 mm 1 mps 734 mmHg 44%
    07:00 +25°C° 0 mm 1 mps 733 mmHg 39%
    08:00 +27°C° 0 mm 2 mps 733 mmHg 34%
    09:00 +29°C° 0 mm 2 mps 733 mmHg 30%
    10:00 +30°C° 0 mm 2 mps 733 mmHg 28%
    11:00 +31°C° 0 mm 2 mps 732 mmHg 27%
    12:00 +33°C° 0 mm 3 mps 732 mmHg 25%
    13:00 +34°C° 0 mm 3 mps 731 mmHg 25%
    14:00 +34°C° 0 mm 3 mps 731 mmHg 24%
    15:00 +35°C° 0 mm 4 mps 731 mmHg 24%
    16:00 +34°C° 0 mm 3 mps 731 mmHg 26%
    17:00 +33°C° 0 mm 3 mps 731 mmHg 29%
    18:00 +31°C° 0 mm 3 mps 731 mmHg 32%
    19:00 +29°C° 0 mm 3 mps 731 mmHg 34%
    20:00 +28°C° 0 mm 4 mps 731 mmHg 36%
    21:00 +26°C° 0 mm 4 mps 731 mmHg 38%
    22:00 +26°C° 0 mm 3 mps 731 mmHg 39%
    23:00 +25°C° 0 mm 3 mps 731 mmHg 39%
    Show more